Location: Unspecified
(57.6483°N, 3.3184°W)
Time: 00:35:32
(UTC+01:00)

N. Korean satellite - Pass Details

Date: 03 March 2021
Orbit: 452 x 499 km, 97.2° (Epoch: 22 April)

Event Time Altitude Azimuth Distance (km) Brightness Sun altitude
Rises 05:21:23 0° 19° (NNE) 2,517 10.6 -14.2°
Reaches altitude 10° 05:23:32 10° 28° (NNE) 1,643 9.8 -13.9°
Maximum altitude 05:26:50 37° 97° (E) 761 8.2 -13.5°
Drops below altitude 10° 05:30:10 10° 167° (SSE) 1,656 9.3 -13.0°
Sets 05:32:20 0° 176° (S) 2,539 10.2 -12.7°
